Weather History for KBZN - August, 2014

Change the Weather History Date:

Saturday, August 30, 2014

  Actual Average Record
Temperature  
Mean Temperature 62 °F 64 °F  
Max Temperature 69 °F 83 °F 95 °F (1954)
Min Temperature 54 °F 46 °F 30 °F (1965)
Degree Days  
Heating Degree Days 3    
Month to date heating degree days 65  
Since 1 June heating degree days 314  
Since 1 July heating degree days 78  
Cooling Degree Days 0    
Month to date cooling degree days 59  
Year to date cooling degree days 182  
Since 1 June cooling degree days 182  
Growing Degree Days 11 (Base 50)    
Moisture  
Dew Point 51 °F    
Average Humidity 62    
Maximum Humidity 86    
Minimum Humidity 37    
Precipitation  
Precipitation 0.33 in 0.03 in 0.43 in (1977)
Month to date precipitation 2.77 1.04  
Year to date precipitation 12.15 10.46  
Snow  
Snow 0.00 in 0.00 in 0.00 in (1998)
Month to date snowfall 0.0 0.0  
Since 1 June snowfall 0.0 0.0  
Since 1 July snowfall 0.0 0.0  
Snow Depth 0.00 in    
Sea Level Pressure  
Sea Level Pressure 29.83 in    
Wind  
Wind Speed 6 mph (SSE)    
Max Wind Speed 14 mph    
Max Gust Speed 17 mph    
Visibility 8 miles    
Events Rain , Thunderstorm    
T = Trace of Precipitation, MM = Missing Value Source: NWS Daily Summary

Daily Weather History Graph

Daily Weather History Graph

Search for Another Location

Airport or City:

Trip Planner

Search our weather history database for the weather conditions in past years. The results will help you decide how hot, cold, wet, or windy it might be!

Date:

Astronomy

Aug. 30, 2014 Rise Set
Actual Time 6:43 AM MDT 8:06 PM MDT
Civil Twilight 6:12 AM MDT 8:37 PM MDT
Nautical Twilight 5:34 AM MDT 9:14 PM MDT
Astronomical Twilight 4:54 AM MDT 9:54 PM MDT
Moon 11:51 AM MDT (8/30) 10:25 PM MDT (8/30)
Length of Visible Light 14h 24m
Length of Day
13h 23m
Waxing Crescent, 23% of the Moon is Illuminated
Aug 30
Waxing Crescent
Sep 2
First Quarter
Sep 8
Full
Sep 15
Last Quarter
Sep 24
New

Hourly Weather History & Observations

Time (MDT) Temp. Dew Point Humidity Pressure Visibility Wind Dir Wind Speed Gust Speed Precip Events Conditions
12:21 AM 66.9 °F 45.0 °F 45% 29.87 in 10.0 mi SSE 18.4 mph - 0.00 in   Overcast
12:56 AM 69.1 °F 43.0 °F 39% 29.77 in 10.0 mi SSW 11.5 mph 17.3 mph 0.00 in   Overcast
1:56 AM 60.1 °F 48.0 °F 64% 29.75 in 10.0 mi ESE 4.6 mph - 0.00 in   Mostly Cloudy
2:56 AM 57.9 °F 48.9 °F 72% 29.72 in 10.0 mi SSE 6.9 mph - N/A   Clear
3:56 AM 60.1 °F 48.9 °F 67% 29.71 in 10.0 mi SSW 5.8 mph - N/A   Scattered Clouds
4:56 AM 59.0 °F 48.9 °F 69% 29.76 in 10.0 mi WNW 13.8 mph - N/A   Mostly Cloudy
5:56 AM 59.0 °F 48.0 °F 67% 29.83 in 10.0 mi West 13.8 mph - 0.00 in Rain Light Rain
6:56 AM 55.0 °F 51.1 °F 86% 29.87 in 10.0 mi SSW 8.1 mph - 0.07 in   Overcast
7:56 AM 55.0 °F 51.1 °F 86% 29.85 in 10.0 mi SSE 9.2 mph - 0.01 in   Scattered Clouds
8:56 AM 57.0 °F 52.0 °F 83% 29.82 in 10.0 mi SE 6.9 mph - N/A   Clear
9:56 AM 61.0 °F 52.0 °F 72% 29.78 in 10.0 mi Calm Calm - N/A   Clear
10:56 AM 61.0 °F 52.0 °F 72% 29.81 in 10.0 mi North 4.6 mph - N/A   Clear
11:56 AM 62.1 °F 52.0 °F 70% 29.78 in 10.0 mi Calm Calm - N/A   Overcast
12:56 PM 62.1 °F 50.0 °F 65% 29.77 in 10.0 mi SSW 4.6 mph - N/A   Overcast
1:56 PM 55.4 °F 51.8 °F 88% 29.90 in 2.0 mi NW 16.1 mph 24.2 mph N/A Rain , Thunderstorm Heavy Rain
2:00 PM 55.9 °F 53.1 °F 90% 29.90 in 1.2 mi WNW 15.0 mph - 0.05 in Rain , Thunderstorm Heavy Thunderstorms and Rain
2:03 PM 55.0 °F 53.1 °F 93% 29.91 in 0.8 mi WNW 9.2 mph - 0.09 in Rain , Thunderstorm Heavy Thunderstorms and Rain
2:19 PM 55.0 °F 52.0 °F 89% 29.90 in 3.0 mi SE 4.6 mph - 0.19 in Rain , Thunderstorm Thunderstorms and Rain
2:42 PM 55.9 °F 53.1 °F 90% 29.88 in 10.0 mi East 10.4 mph - 0.19 in   Mostly Cloudy
2:56 PM 57.0 °F 53.1 °F 87% 29.81 in 10.0 mi East 5.8 mph - 0.19 in   Mostly Cloudy
3:56 PM 61.0 °F 51.1 °F 70% 29.78 in 10.0 mi South 5.8 mph - N/A   Partly Cloudy
4:44 PM 57.0 °F 54.0 °F 89% 29.89 in 4.0 mi WNW 10.4 mph - 0.05 in Rain , Thunderstorm Light Rain
4:56 PM 55.9 °F 53.1 °F 90% 29.83 in 5.0 mi NW 20.7 mph 25.3 mph 0.07 in Rain , Thunderstorm Rain
5:23 PM 54.0 °F 52.0 °F 93% 29.89 in 9.0 mi East 9.2 mph - 0.07 in Rain Light Rain
5:56 PM 55.9 °F 51.1 °F 84% 29.83 in 10.0 mi East 6.9 mph - 0.08 in   Mostly Cloudy
6:56 PM 55.9 °F 52.0 °F 87% 29.86 in 9.0 mi South 5.8 mph - 0.00 in Rain Light Rain
7:56 PM 54.0 °F 51.1 °F 90% 29.84 in 10.0 mi SE 9.2 mph - 0.01 in   Mostly Cloudy
8:56 PM 54.0 °F 51.1 °F 90% 29.85 in 10.0 mi SSE 5.8 mph - N/A   Mostly Cloudy
9:56 PM 53.1 °F 48.9 °F 86% 29.85 in 10.0 mi SE 3.5 mph - N/A   Mostly Cloudy
10:56 PM 54.0 °F 50.0 °F 86% 29.84 in 10.0 mi East 5.8 mph - N/A   Mostly Cloudy
11:56 PM 52.0 °F 48.9 °F 89% 29.84 in 10.0 mi ENE 5.8 mph - N/A   Scattered Clouds